Weather History for PAEI - November, 2012

Change the Weather History Date:

Thursday, November 29, 2012

  Actual Average Record
Temperature  
Mean Temperature -27 °F -  
Max Temperature -23 °F 5 °F 46 °F (1979)
Min Temperature -31 °F -9 °F -43 °F (1990)
Degree Days  
Heating Degree Days 92    
Moisture  
Dew Point -30 °F    
Average Humidity 92    
Maximum Humidity 100    
Minimum Humidity 72    
Precipitation  
Precipitation 0.00 in - - ()
Sea Level Pressure  
Sea Level Pressure 30.23 in    
Wind  
Wind Speed 0 mph (SSE)    
Max Wind Speed 7 mph    
Max Gust Speed -    
Visibility 10 miles    
Events Snow    
Averages and records for this station are not official NWS values.
T = Trace of Precipitation, MM = Missing Value Source: NWS Daily Summary

Daily Weather History Graph

Daily Weather History Graph

Search for Another Location

Airport or City:

Trip Planner

Search our weather history database for the weather conditions in past years. The results will help you decide how hot, cold, wet, or windy it might be!

Date:

Astronomy

Nov. 29, 2012 Rise Set
Actual Time 10:09 AM AKST 3:03 PM AKST
Civil Twilight 8:57 AM AKST 4:16 PM AKST
Nautical Twilight 7:50 AM AKST 5:23 PM AKST
Astronomical Twilight 6:50 AM AKST 6:22 PM AKST
Moon 4:11 PM AKST (11/29) 11:07 AM AKST (11/29)
Length of Visible Light 7h 18m
Length of Day
4h 53m
Full, 99% of the Moon is Illuminated
Nov 29
Full
Dec 6
Last Quarter
Dec 12
New
Dec 19
First Quarter
Dec 28
Full

Hourly Weather History & Observations

Time (AKST) Temp. Windchill Dew Point Humidity Pressure Visibility Wind Dir Wind Speed Gust Speed Precip Events Conditions
12:55 AM -30.5 °F - - N/A% 30.24 in 10.0 mi Calm Calm - N/A   Clear
1:55 AM -30.5 °F - - N/A% 30.22 in 10.0 mi Calm Calm - N/A   Clear
2:55 AM -29.9 °F - -29.9 °F 100% 30.22 in 10.0 mi Calm Calm - N/A   Clear
3:55 AM -29.4 °F - -29.9 °F 97% 30.22 in 10.0 mi Calm Calm - N/A   Scattered Clouds
3:58 AM -29.2 °F - -29.2 °F 100% 30.22 in 10.0 mi Calm Calm - N/A   Mostly Cloudy
4:18 AM -29.2 °F - -29.2 °F 100% 30.22 in 10.0 mi Calm Calm - N/A   Scattered Clouds
4:55 AM -29.2 °F - -29.9 °F 96% 30.22 in 10.0 mi Calm Calm - N/A   Clear
5:55 AM -30.1 °F - - N/A% 30.22 in 10.0 mi Calm Calm - N/A   Clear
6:55 AM -30.8 °F -43.1 °F - N/A% 30.22 in 10.0 mi SSE 3.5 mph - N/A   Clear
7:55 AM -30.1 °F - - N/A% 30.21 in 10.0 mi Calm Calm - N/A   Clear
8:55 AM -29.9 °F - -30.1 °F 99% 30.21 in 10.0 mi Calm Calm - N/A   Clear
9:55 AM -31.9 °F - - N/A% 30.22 in 10.0 mi Calm Calm - 0.00 in   Clear
10:55 AM -28.7 °F - -29.9 °F 94% 30.22 in 10.0 mi Calm Calm - N/A   Clear
11:55 AM -27.2 °F -38.9 °F -29.9 °F 87% 30.22 in 10.0 mi SE 3.5 mph - 0.00 in Snow Light Snow
12:55 PM -25.8 °F - -29.9 °F 81% 30.22 in 10.0 mi Calm Calm - 0.00 in   Clear
1:55 PM -23.6 °F - -29.9 °F 72% 30.22 in 10.0 mi Calm Calm - 0.00 in   Clear
2:55 PM -26.1 °F - -29.9 °F 82% 30.22 in 10.0 mi Calm Calm - N/A   Clear
3:55 PM -25.8 °F - -29.9 °F 81% 30.22 in 10.0 mi Calm Calm - N/A   Clear
4:55 PM -26.7 °F - -29.9 °F 85% 30.23 in 10.0 mi Calm Calm - 0.00 in Snow Light Snow
5:55 PM -28.8 °F - -29.9 °F 95% 30.24 in 10.0 mi Calm Calm - 0.00 in   Clear
6:55 PM -29.4 °F - -29.9 °F 97% 30.25 in 10.0 mi Calm Calm - N/A   Clear
7:55 PM -28.7 °F -40.6 °F -29.9 °F 94% 30.25 in 10.0 mi South 3.5 mph - N/A   Clear
8:55 PM -29.9 °F -49.0 °F -30.1 °F 99% 30.25 in 10.0 mi South 6.9 mph - 0.00 in   Clear
9:55 PM -29.0 °F - -29.9 °F 95% 30.25 in 10.0 mi Calm Calm - 0.00 in   Clear
10:55 PM -29.6 °F - -29.9 °F 98% 30.26 in 10.0 mi Calm Calm - N/A   Clear
11:55 PM -30.6 °F - - N/A% 30.24 in 10.0 mi Calm Calm - 0.00 in   Clear